Welcome to the New NWS' Forecast!
Most changes are behind the scenes, but click here for differences you might notice.
Latest weather observations around

Lansing Municipal Airport (KIGQ)

Using English Units (Switch to International System of Units)
Date/ Time (CDT) Wind (mph) Vis. (mi) Weather Sky Cond. Temp (°F) Rel. Humidity Wind Chill (°F) Heat Index (°F) Pressure Precip. (in)
Air Dwpt 6 hour Altimeter (inHg) Sea level (inHg) 1 hr 3 hr 6 hr
Max Min
Aug 15 15:15 SSE 8 10 Mostly Cloudy SCT025 BKN036 81 69     66%   84 29.93        
Aug 15 14:55 SSE 11 10 Cloudy SCT025 OVC034 80 68     67%   82 29.93        
Aug 15 14:35 SSE 9 10 Cloudy BKN025 OVC032 80 67     65%   82 29.94        
Aug 15 14:15 SSE 10 10 Mostly Cloudy SCT025 BKN032 80 67     65%   82 29.94        
Aug 15 13:55 S 11 10 Mostly Cloudy BKN025 BKN032 82 68     62%   85 29.94        
Aug 15 13:35 S 14 10 Mostly Cloudy BKN027 BKN035 82 68     64%   85 29.95        
Aug 15 13:15 S 15 10 Cloudy BKN027 OVC031 80 68     66%   83 29.95        
Aug 15 12:55 SSW 7 10 Cloudy BKN027 OVC035 79 69     74%   80 29.95        
Aug 15 12:35 SSE 3 10 Cloudy SCT030 BKN050 OVC065 80 67     66%   82 29.95        
Aug 15 12:15 S 3 10 Partly Cloudy SCT055 SCT070 SCT090 80 67     65%   83 29.96        
Aug 15 11:55 S 5 10 Mostly Cloudy BKN090 81 68     66%   83 29.96        
Aug 15 11:35 SSE 6 10 Partly Cloudy SCT090 80 68     66%   82 29.96        
Aug 15 11:15 ESE 8 10 Clear CLR 80 69     68%   83 29.97        
Aug 15 10:55 SE 7 10 Clear CLR 79 68     69%   79 29.97        
Aug 15 10:35 SE 8 10 Clear CLR 79 68     69%   82 29.97        
Aug 15 10:15 Calm 10 Clear CLR 78 67     70%   79 29.96        
Aug 15 09:55 ESE 3 10 Clear CLR 77 67     72%   78 29.96        
Aug 15 09:35 Calm 10 Partly Cloudy SCT090 77 67     71%   78 29.96        
Aug 15 09:15 ESE 6 10 Partly Cloudy SCT090 76 67     72%   77 29.97        
Aug 15 08:55 SE 5 10 Partly Cloudy SCT090 75 67     75%   76 29.97        
Aug 15 08:35 ESE 5 10 Clear CLR 75 66     75%   76 29.97        
Aug 15 08:15 ESE 5 10 Clear CLR 74 66     78%   74 29.97        
Aug 15 07:55 SE 5 10 Partly Cloudy SCT070 73 67     80%   74 29.97        
Aug 15 07:35 SSE 3 10 Partly Cloudy SCT060 72 66     81%   73 29.97        
Aug 15 07:15 Calm 10 Partly Cloudy SCT070 72 66     83%   73 29.98        
Aug 15 06:55 SSE 3 10 Mostly Cloudy BKN070 BKN085 71 66     83%   72 29.98        
Aug 15 06:35 SE 3 10 Cloudy SCT050 BKN070 OVC085 71 65     83%   71 29.97        
Aug 15 06:15 Calm 10 Cloudy BKN044 BKN050 OVC085 70 66     86%   71 29.98        
Aug 15 05:55 Calm 10 Cloudy SCT044 BKN049 OVC060 71 66     84%   71 29.97        
Aug 15 05:35 ESE 3 10 Cloudy SCT048 OVC065 71 65     83%   71 29.97        
Aug 15 05:15 Calm 10 Mostly Cloudy SCT046 BKN060 70 65     84%   71 29.97        
Aug 15 04:55 Calm 10 Cloudy BKN048 OVC060 70 65     85%     29.97        
Aug 15 04:35 S 5 10 Mostly Cloudy BKN050 BKN060 70 64     83%     29.97        
Aug 15 04:15 Calm 10 Partly Cloudy SCT050 71 64     81%   71 29.97        
Aug 15 03:55 Calm 10 Partly Cloudy SCT048 70 64     81%   71 29.97        
Aug 15 03:35 Calm 10 Partly Cloudy SCT046 SCT060 70 64     82%   71 29.97        
Aug 15 03:15 Calm 10 Partly Cloudy SCT046 69 64     83%     29.97        
Aug 15 02:55 SSW 3 10 Clear CLR 70 64     82%     29.96        
Aug 15 02:35 Calm 10 Clear CLR 71 64     79%   72 29.95        
Aug 15 02:15 Calm 10 Clear CLR 71 63     78%   71 29.95        
Aug 15 01:55 Calm 10 Clear CLR 71 63     76%   72 29.94        
Aug 15 01:35 Calm 10 Clear CLR 72 63     75%   72 29.95        
Aug 15 01:15 Calm 10 Clear CLR 71 63     77%   71 29.95        
Aug 15 00:55 Calm 10 Clear CLR 71 63     77%   71 29.96        
Aug 15 00:35 Calm 10 Clear CLR 70 63     78%   71 29.96        
Aug 15 00:15 Calm 10 Clear CLR 71 63     76%   71 29.96        
Aug 14 23:55 Calm 10 Clear CLR 71 63     77%   71 29.96        
Aug 14 23:35 Calm 10 Clear CLR 72 63     75%   72 29.97        
Aug 14 23:15 Calm 10 Clear CLR 72 64     76%   72 29.97        
Aug 14 22:55 Calm 10 Clear CLR 72 63     75%   72 29.97        
Aug 14 22:35 Calm 10 Clear CLR 73 64     73%   73 29.97        
Aug 14 22:15 Calm 10 Clear CLR 73 64     73%   73 29.98        
Aug 14 21:55 Calm 10 Clear CLR 73 64     74%   73 29.97        
Aug 14 21:35 SSW 5 10 Clear CLR 73 64     73%   74 29.98        
Aug 14 21:15 SSW 5 10 Clear CLR 73 64     73%   74 29.97        
Aug 14 20:55 SSW 5 10 Clear CLR 74 65     72%   75 29.96        
Aug 14 20:35 SSW 6 10 Clear CLR 75 65     70%   76 29.96        
Aug 14 20:15 S 6 10 Clear CLR 76 64     68%   76 29.96        
Aug 14 19:55 SSW 5 10 Clear CLR 77 64     65%   77 29.96        
Aug 14 19:35 S 6 10 Clear CLR 78 63     60%   78 29.96        
Aug 14 19:15 S 6 10 Clear CLR 80 63     56%   81 29.95        
Aug 14 18:55 SSW 6 10 Clear CLR 81 63     54%   83 29.95        
Aug 14 18:35 S 6 10 Clear CLR 81 63     54%   83 29.95        
Aug 14 18:15 S 6 10 Partly Cloudy SCT065 82 62     51%   83 29.95        
Aug 14 17:55 S 7 10 Partly Cloudy SCT065 83 61     46%   84 29.96        
Aug 14 17:35 SSW 5 10 Clear CLR 85 62     45%   86 29.96        
Aug 14 17:15 SSW 7 10 Clear CLR 84 62     48%   84 29.96        
Aug 14 16:55 S 7 10 Partly Cloudy SCT060 85 61     45%   85 29.96        
Aug 14 16:35 S 6 10 Partly Cloudy SCT060 86 61     44%   86 29.96        
Aug 14 16:15 SW 6 10 Partly Cloudy SCT060 86 61     43%   86 29.96        
Aug 14 15:55 SW 8 10 Mostly Cloudy BKN060 BKN070 87 62     43%   88 29.96        
Aug 14 15:35 SSW 8 10 Partly Cloudy SCT060 SCT070 86 62     44%   87 29.97        
Aug 14 15:15 S 8 10 Partly Cloudy SCT060 85 62     46%   86 29.98        
Aug 14 14:55 SSW 7 10 Clear CLR 85 62     45%   86 29.98        
Aug 14 14:35 SW 8 10 Clear CLR 87 62     44%   87 29.99        
Aug 14 14:15 SW 7 10 Clear CLR 86 61     43%   86 29.99        
Aug 14 13:55 SSW 9 10 Partly Cloudy SCT060 87 61     42%   87 30        
Aug 14 13:35 WSW 6 10 Partly Cloudy SCT060 86 60     42%   86 30        
Aug 14 13:15 SSW 9 10 Partly Cloudy SCT060 86 61     43%   86 30        
Aug 14 12:55 SSW 9 10 Partly Cloudy SCT060 87 60     41%   86 30        
Aug 14 12:35 WSW 10 10 Clear CLR 86 60     41%   86 30        
Notice The following observation data may not be complete
Aug 14 12:15   10 Partly Cloudy SCT055          %              
Aug 14 11:55 SW 5 10 Clear CLR 85 60     42%   85 30.01        
Aug 14 11:35 S 8 10 Partly Cloudy SCT055 85 61     44%   85 30.01        
Aug 14 11:15 SSW 3 10 Clear CLR 84 60     44%   84 30.01        
Aug 14 10:55 S 5 10 Clear CLR 83 62     48%   84 30.01        
Aug 14 10:35 WSW 3 10 Clear CLR 83 62     49%   84 30.01        
Notice The following observation data may not be complete
Aug 14 10:15   10 Clear CLR          %              
Aug 14 09:55 Calm 10 Clear CLR 81 64     57%   83 30.01        
Aug 14 09:35 Calm 10 Clear CLR 79 65     63%   80 30.02        
Aug 14 09:15 Calm 10 Clear CLR 76 65     68%   77 30.02        
Aug 14 08:55 Calm 10 Clear CLR 74 65     74%   74 30.02        
Aug 14 08:35 Calm 10 Clear CLR 72 65     78%   72 30.02        
Aug 14 08:15 Calm 7 Clear CLR 70 64     81%     30.02        
Aug 14 07:55 Calm 5 Haze CLR 68 63     84%     30.02        
Aug 14 07:35 Calm 7 Clear CLR 66 63     89%     30.02        
Aug 14 07:15 Calm 10 Clear CLR 65 62     92%     30.01        
Aug 14 06:55 S 3 10 Clear CLR 63 61     93%     30.01        
Aug 14 06:35 S 3 7 Clear CLR 61 60     94%     30.01        
Aug 14 06:15 Calm 7 Clear CLR 61 59     94%     30.01        
Aug 14 05:55 Calm 10 Clear CLR 62 61     94%     30.01        
Aug 14 05:35 Calm 10 Clear CLR 61 60     97%     30.01        
Aug 14 05:15 Calm 7 Clear CLR 61 60     96%     30        
Aug 14 04:55 Calm 10 Clear CLR 62 60     94%     30        
Aug 14 04:35 Calm 10 Clear CLR 63 61     93%     30        
Aug 14 04:15 Calm 10 Clear CLR 63 61     92%     30        
Aug 14 03:35 Calm 10 Clear CLR 64 62     91%     30        
Notice The following observation data may not be complete
Aug 14 03:15   10 Clear CLR          %              
Aug 14 02:55 Calm 10 Clear CLR 65 62     90%     30        
Aug 14 02:35 Calm 10 Clear CLR 66 62     86%     30        
Aug 14 02:15 Calm 10 Clear CLR 64 61     88%     30.01        
Aug 14 01:55 Calm 10 Clear CLR 66 62     89%     30.01        
Aug 14 01:35 Calm 10 Clear CLR 65 61     88%     30.01        
Notice The following observation data may not be complete
Aug 14 01:15   10 Clear CLR          %              
Aug 14 00:55 Calm 10 Clear CLR 68 61     79%     30.02        
Aug 14 00:35 Calm 10 Clear CLR 67 61     81%     30.03        
Aug 14 00:15 Calm 10 Clear CLR 70 62     77%     30.03        
Aug 13 23:55 Calm 10 Clear CLR 68 61     78%     30.03        
Aug 13 23:35 Calm 10 Clear CLR 67 61     80%     30.03        
Aug 13 23:15 Calm 10 Clear CLR 69 61     74%     30.03        
Aug 13 22:55 Calm 10 Clear CLR 70 62     75%     30.04        
Aug 13 22:35 Calm 10 Clear CLR 68 62     81%     30.04        
Notice The following observation data may not be complete
Aug 13 22:15   10 Clear CLR          %              
Aug 13 21:35 Calm 10 Clear CLR 70 61     73%     30.04        
Aug 13 21:15 Calm 10 Clear CLR 72 60     64%   72 30.04        
Aug 13 20:55 Calm 10 Clear CLR 71 60     67%   71 30.03        
Aug 13 20:35 Calm 10 Clear CLR 75 58     55%   75 30.03        
Aug 13 20:15 ESE 3 10 Clear CLR 77 58     52%   77 30.02        
Aug 13 19:55 ESE 3 10 Clear CLR 78 57     50%   77 30.02        
Aug 13 19:35 E 5 10 Clear CLR 78 58     50%   78 30.01        
Aug 13 19:15 E 5 10 Clear CLR 80 56     43%   80 30.01        
Aug 13 18:55 E 6 10 Clear CLR 81 56     43%   81 30.01        
Aug 13 18:35 NE 6 10 Clear CLR 81 56     42%   81 30.01        
Aug 13 18:15 NE 7 10 Clear CLR 83 56     40%   82 30.01        
Aug 13 17:55 NE 7 10 Clear CLR 83 56     39%   83 30.02        
Aug 13 17:35 NE 6 10 Clear CLR 84 56     40%   83 30.02        
Aug 13 17:15 NE 6 10 Clear CLR 85 57     39%   84 30.02        
Aug 13 16:55 E 6 10 Clear CLR 85 57     39%   84 30.02        
Aug 13 16:35 Calm 10 Clear CLR 85 57     39%   84 30.03        
Aug 13 16:15 E 3 10 Clear CLR 85 57     39%   85 30.03        
Aug 13 15:55 N 3 10 Clear CLR 85 58     39%   84 30.04        
Aug 13 15:35 ESE 3 10 Clear CLR 86 58     39%   85 30.04        
Aug 13 15:15 E 5 10 Clear CLR 86 58     39%   85 30.05        
Aug 13 14:55 Calm 10 Clear CLR 85 58     40%   85 30.05        
Aug 13 14:35 NNE 5 10 Clear CLR 85 58     39%   85 30.06        
Aug 13 13:55 Calm 10 Partly Cloudy SCT050 85 60     44%   85 30.08        
Aug 13 13:35 Calm 10 Mostly Cloudy BKN050 84 62     47%   85 30.08        
Aug 13 13:15 Calm 10 Cloudy BKN060 OVC065 83 62     49%   83 30.09        
Aug 13 12:55 Calm 10 Cloudy BKN049 OVC070 82 61     49%   83 30.09        
Aug 13 12:35 Calm 10 Cloudy SCT040 OVC047 82 60     48%   83 30.1        
Aug 13 12:15 NW 3 10 Cloudy BKN039 BKN050 OVC065 83 63     51%   84 30.1        
Aug 13 11:55 Calm 10 Mostly Cloudy SCT039 SCT049 BKN075 81 65     57%   83 30.11        
Aug 13 11:35 ESE 5 10 Clear CLR 82 64     56%   83 30.12        
Aug 13 11:15 Calm 10 Clear CLR 82 65     57%   84 30.12        
Aug 13 10:55 Calm 10 Clear CLR 80 67     65%   82 30.13        
Aug 13 10:35 N 3 7 Clear CLR 79 69     71%   80 30.14        
Aug 13 10:15 Calm 5 Haze CLR 76 70     82%   77 30.14        
Aug 13 09:55 Calm 4 Fog/Mist CLR 74 71     88%   76 30.14        
Aug 13 09:35 Calm 3 Fog/Mist SCT003 73 71     95%   74 30.13        
Aug 13 08:55 Calm 0.5 Fog OVC003 70 70     100%   72 30.14        
Aug 13 07:55 Calm 0.5 Fog OVC003 68 68     99%     30.13        
Aug 13 07:35 WNW 3 4 Fog/Mist SCT005 67 67     100%     30.13        
Aug 13 06:55 Calm 0.5 Fog BKN001 OVC007 64 64     100%     30.12        
Aug 13 06:35 Calm 0.25 Fog OVC001 63 63     100%     30.11        
Aug 13 06:15 Calm 0.25 Fog OVC001 63 63     100%     30.11        
Aug 13 05:55 Calm 0.25 Fog OVC001 63 63     100%     30.11        
Aug 13 02:35 Calm 10 Clear CLR 65 64     96%     30.12        
Aug 13 01:35 Calm 7 Clear CLR 65 63     95%     30.13        
Aug 13 01:15 Calm 10 Clear CLR 65 64     98%     30.13        
Aug 13 00:55 Calm 7 Clear CLR 64 62     94%     30.13        
Aug 13 00:35 Calm 10 Clear CLR 66 63     93%     30.14        
Aug 13 00:15 Calm 10 Clear CLR 66 64     94%     30.14        
Aug 12 23:35 Calm 5 Fog/Mist CLR 65 63     94%     30.13        
Aug 12 23:15 Calm 10 Clear CLR 66 63     92%     30.13        
Aug 12 22:55 Calm 10 Clear CLR 66 64     92%     30.13        
Aug 12 22:35 Calm 10 Clear CLR 66 64     92%     30.13        
Aug 12 22:15 Calm 10 Clear CLR 70 66     85%   71 30.12        
Aug 12 21:55 Calm 10 Clear CLR 72 67     85%   72 30.12        
Aug 12 21:35 Calm 10 Clear CLR 72 67     86%   73 30.12        
Aug 12 21:15 NE 3 10 Clear CLR 72 67     83%   73 30.11        
Aug 12 20:35 Calm 10 Clear CLR 72 65     78%   73 30.1        
Aug 12 19:15 NNE 3 10 Clear CLR 77 63     61%   77 30.08        
Aug 12 18:35 Calm 10 Clear CLR 80 59     48%   80 30.09        
Aug 12 18:15 N 6 10 Clear CLR 81 58     45%   81 30.08        
Aug 12 17:55 N 3 10 Clear CLR 81 57     43%   81 30.09        
Aug 12 16:55 NE 8 10 Clear CLR 83 53     35%   82 30.09        
Aug 12 16:35 N 6 10 Clear CLR 84 51     33%   82 30.1        
Aug 12 15:35 NE 7 10 Clear CLR 84 56     38%   83 30.11        
Aug 12 15:15 NNE 7 10 Clear CLR 84 60     43%   84 30.11        
Aug 12 13:35 ENE 10 10 Clear CLR 84 58     41%   83 30.13        
Aug 12 13:15 ENE 13   Clear CLR 83 61     46%   84 30.14        
Aug 12 12:35 NE 8 10 Clear CLR 85 59     42%   84 30.14        
Notice The following observation data may not be complete
May 15 09:15   10 Partly Cloudy SCT017 SCT032          %              
May 14 23:15 SE 5 1.5 Cloudy BKN015 BKN024 OVC038 63 63     98%     29.85   0    
May 14 10:15 Calm 10 Cloudy OVC090 65 65     99%     29.98        
May 14 06:55   7 Cloudy BKN050 BKN065 OVC080 58 57     97%     30.01        
May 14 02:35 SE 3 7 Clear CLR 52 52     100%     29.92        
May 13 22:55 Calm 7 Mostly Cloudy BKN085 52 51     98%     29.99        
May 13 14:15 N 7 10 Partly Cloudy SCT080 64 57     78%     30.02        
May 13 12:35 NNE 5 7 Clear   63 58     82%     30.04        
May 13 12:15 NNE 7 7 Mostly Cloudy BKN100 62 57     83%     30.04        
Notice The following observation data may not be complete
May 13 09:15   4 Fog/Mist OVC005          %              
May 13 01:15 NE 8 3 Thunderstorms and Rain OVC003 50 50     100% 47   30.05        
May 12 23:35 NE 3 5 Fog/Mist OVC005 47 47     100% 46   30.04        
May 12 16:35 ENE 8 2 Clear   47 47     100% 43   30.04        
May 12 14:15 NNE 9 7 Cloudy OVC012 48 46     93% 44   30.11        
Notice The following observation data may not be complete
May 12 13:15   7 Cloudy OVC012          %              
May 12 12:35 NNE 11 10 Cloudy OVC010 50 47     90% 45   30.1        
May 12 03:35 NNE 13 10 Clear   47 45     93% 42   29.96        
May 12 01:55 NE 13 10 Cloudy OVC080 49 46     92% 44   29.95        
Notice The following observation data may not be complete
May 12 00:35   10 Cloudy OVC090          %              
May 11 23:35 NNE 6 10 Cloudy OVC090 51 47     89%     29.96        
May 11 22:55 NE 5 10 Cloudy SCT090 OVC120 50 47     90% 48   29.96        
May 11 22:35 NNE 6 10 Cloudy OVC120 50 47     90% 48   29.96        
May 11 21:55 NE 6 10 Cloudy OVC110 50 47     90% 47   29.96        
May 11 20:55 NE 10 10 Mostly Cloudy SCT070 BKN095 50 47     90% 46   29.94        
May 11 13:15 E 15 10 Clear CLR 58 51     76%     29.94        
Jun 12 07:35 W 13 10 Clear CLR 76 61     60%   76 29.99        
Jun 12 01:55 SSW 10 10 Clear CLR 73 58     58%   73 29.96        
Jun 11 21:15 S 14 10 Clear CLR 81 56     42%   81 29.89        
Notice The following observation data may not be complete
Jun 11 16:35   10 Clear CLR          %              
Jun 11 12:35 SW 18 10 Clear CLR 88 59     38%   88 29.96        
Notice The following observation data may not be complete
Jun 11 12:15   10 Clear CLR          %              
Jun 11 10:35 WSW 16 10 Clear CLR 84 60     44%   84 29.99        
Notice The following observation data may not be complete
Jun 11 02:35   10 Clear CLR          %              
Notice The following observation data may not be complete
Jun 10 20:15   10 Clear CLR          %              
Jun 10 17:55 SSW 23 10 Clear and Windy CLR 87 47     24%   84 29.81        
Jun 10 15:55   10 Clear CLR 89 47     24%   86 29.83        
Jun 10 15:15 SSW 23 7 Clear and Windy CLR 89 49     26%   86 29.83        
Jun 10 13:15   10 Clear CLR 87 49     28%   84 29.87        
Jun 10 10:55 SW 20 10 Clear and Windy CLR 82 53     37%   81 29.89        
Jun 10 08:15 SW 9 10 Clear CLR 71 56     59%   70 29.91        
Notice The following observation data may not be complete
Jun 09 23:15   10 Clear CLR          %              
Jun 09 18:55 NNE 8 10 Mostly Cloudy SCT085 BKN110 72 56     56%   72 29.8        
Notice The following observation data may not be complete
Jun 09 18:15   10 Mostly Cloudy SCT030 BKN085          %              
Jun 09 16:35 NE 13 10 Clear   83 55     38%   82 29.77        
Jun 09 16:15   10 Partly Cloudy SCT090 88 52     29%   86 29.76        
Jun 09 10:35 W 11 10 Clear CLR 80 54     40%   80 29.82        
Notice The following observation data may not be complete
Jun 09 09:15   10 Partly Cloudy SCT095          %              
Jun 09 06:55 NNW 9 10 Partly Cloudy SCT100 SCT120 68 50     53%     29.81        
Notice The following observation data may not be complete
Jun 09 04:35   10 Clear CLR          %              
Jun 09 00:15 Calm 10 Clear   64 49     57%     29.85        
Jun 08 23:15 S 7 10 Mostly Cloudy BKN100 65 49     55%     29.85        
Jun 08 18:55 WSW 6 10 Clear CLR 77 41     27%   76 29.86        
Notice The following observation data may not be complete
Jun 07 22:15   10 Clear CLR          %              
Notice The following observation data may not be complete
Jun 07 21:15   10 Clear CLR          %              
Jun 07 14:35 NE 9 10 Clear CLR 71 45     40%   70 30.11        
Jun 07 11:55 NNE 11 10 Clear CLR 69 48     48%     30.14        
Jun 07 10:55 NNE 11 10 Clear CLR 67 48     49%     30.15        
Notice The following observation data may not be complete
Jun 07 09:15   10 Clear CLR          %              
Jun 06 09:55 NNE 10 10 Clear CLR 63 48     59%     30.06        
Notice The following observation data may not be complete
Jun 06 09:15   10 Clear CLR          %              
Jun 06 04:35 N 7 10 Clear CLR 55 49     81%     29.99        
Jun 06 00:35 N 10 10 Clear CLR 57 45     64%     29.96        
Notice The following observation data may not be complete
Jun 05 19:15   10 Clear CLR          %